CAPE
0 0 0 0 0 0 0 0 0 0 0 0 85 0 0 9 1 70 215 134 130 140 322 440 463 459 532 529 530 408 393 347 184 24 0 0 0 0 0 0 0 0 0
0 0 0 0 0 0 0 0 0 0 0 0 0 0 0 0 0 0 0 0 0 0 0 0 52 190 240 297 197 54 72 111 151 259 88 10 0 0 0 0 0 0 0
0 0 0 0 0 0 0 0 0 0 0 0 0 0 0 0 0 0 0 0 0 0 0 0 0 0 0 0 0 3 11 8 1 0 100 7 0 0 0 0 0 0 0
0 0 0 0 0 0 0 0 0 0 0 0 0 0 0 0 0 0 0 0 0 0 0 0 0 0 9 14 14 18 3 11 9 22 41 13 3 0 0 0 0 0 0
0 0 0 0 0 0 0 0 0 0 0 0 0 0 0 0 0 0 0 0 0 0 0 0 0 1 2 0 0 0 0 0 1 0 0 16 2 11 8 8 0 0 0
0 0 0 0 0 0 0 0 0 0 0 0 0 0 0 0 0 0 0 0 0 0 0 0 0 1 1 0 0 0 0 1 0 0 0 0 16 6 43 0 0 9 0
0 0 0 0 0 0 0 0 0 0 0 0 0 0 0 0 0 0 0 0 0 0 0 0 0 0 0 0 0 4 16 1 20 12 0 0 0 5 6 9 5 5 0
0 0 0 0 0 0 0 0 0 0 0 0 0 0 0 0 0 0 0 0 0 0 0 0 0 0 0 0 0 0 2 10 4 0 26 3 0 2 0 1 1 0 3
0 0 0 0 0 0 0 0 0 0 0 0 0 0 0 0 0 0 0 0 0 0 0 0 0 0 0 0 0 0 0 0 1 0 8 2 1 1 0 1 2 4 0
0 0 0 0 0 0 0 0 0 0 0 0 0 0 0 0 0 0 0 0 0 0 0 0 0 0 0 0 0 0 0 0 0 0 19 20 31 28 1 0 1 4 10
0 0 0 0 0 0 0 0 0 0 0 0 0 0 0 0 0 0 0 0 0 0 0 0 0 0 0 0 0 0 0 0 0 2 8 5 28 28 14 1 2 3 1
0 0 0 0 0 0 0 0 0 0 0 0 0 0 0 0 0 0 0 0 0 0 0 0 0 0 0 0 0 0 10 13 3 0 0 0 7 19 18 4 0 0 0
0 0 0 0 0 0 0 0 0 0 0 0 0 0 0 0 0 0 0 0 0 0 0 0 0 0 0 0 4 8 25 51 0 0 0 0 17 15 14 1 0 0 0
0 0 0 0 0 0 0 0 0 0 0 0 0 0 0 0 0 0 0 0 0 0 0 0 0 0 0 0 0 10 24 16 22 0 0 0 4 13 0 0 1 0 1
0 0 0 0 0 0 0 0 0 0 0 0 0 0 0 0 0 0 0 0 0 0 0 0 0 0 0 0 9 4 1 0 0 3 1 12 0 0 0 0 1 1 1
0 0 0 0 0 0 0 0 0 0 0 0 0 0 0 0 0 0 0 0 0 0 0 0 0 0 0 0 4 0 0 0 0 0 0 0 0 0 0 0 0 0 0
0 0 0 0 0 0 0 0 0 0 0 0 0 0 0 0 0 0 0 0 0 0 0 0 0 0 0 0 0 0 0 0 0 0 0 0 0 0 0 0 0 0 0
0 0 0 0 0 0 0 0 0 0 0 0 0 0 0 0 0 0 0 0 0 0 0 0 0 0 0 0 0 0 0 0 0 0 0 0 0 1 0 0 0 0 0
0 0 0 0 0 0 0 0 0 0 0 0 0 0 0 0 0 0 0 0 0 0 0 0 0 0 0 0 0 0 0 0 0 0 0 0 0 0 0 0 0 0 0
0 0 0 0 0 0 0 0 0 0 0 0 0 0 0 0 0 0 0 1 0 0 0 0 0 0 0 0 0 0 0 0 0 0 0 0 0 0 0 0 0 0 0
0 0 0 0 0 0 0 0 0 0 0 0 0 0 0 0 0 0 0 0 0 0 0 0 0 0 0 0 0 0 0 0 0 0 0 0 0 0 0 0 0 0 0
0 0 0 0 0 0 0 0 0 0 0 0 0 0 1 1 1 1 0 0 0 1 0 0 0 0 0 0 1 1 1 0 0 0 0 0 0 0 0 0 0 0 0
0 0 0 0 0 0 0 0 0 0 0 0 0 1 0 0 1 1 0 0 1 1 1 1 1 0 0 0 1 0 0 1 0 0 0 0 0 1 1 0 0 1 0
0 0 0 0 0 0 0 0 0 0 0 0 0 1 1 0 1 1 1 1 1 1 1 1 1 0 0 0 0 1 0 1 1 0 0 0 1 0 0 1 1 0 1
0 0 0 0 0 0 0 0 0 0 0 0 0 0 0 0 0 0 1 1 0 0 0 0 0 0 2 0 1 0 0 1 1 0 0 0 1 1 1 0 0 0 0
0 0 0 0 0 0 0 0 0 0 0 0 0 0 0 0 0 0 1 0 0 0 0 0 0 0 0 0 0 0 1 1 1 0 0 0 1 0 0 0 0 0 0
CIN
0 0 0 0 0 0 0 0 0 0 0 -2 -247 -1 0 -319 -1 -222 -101 -140 -164 -190 -93 -63 -50 -42 -31 -40 -26 -18 -13 -32 -90 -191 0 0 0 0 0 0 0 0 0
0 0 0 0 0 0 0 0 0 0 0 0 0 0 0 0 0 0 0 0 0 0 0 0 -99 -39 -60 -36 -54 -71 -58 -52 -30 -3 -52 -42 0 0 0 0 0 0 0
0 0 0 0 0 0 0 0 0 0 0 0 0 0 0 0 0 0 0 0 0 0 0 0 0 0 0 0 0 -1 -3 -5 -1 -3 -2 -10 -9 0 0 0 0 0 0
0 0 0 0 0 0 0 0 0 0 0 0 0 0 0 0 0 0 0 0 0 0 0 0 0 0 -21 -13 -14 -11 -1 -4 0 -2 -14 -7 -27 -11 -4 0 0 0 0
0 0 0 0 0 0 0 0 0 0 0 0 0 0 0 0 0 0 0 0 0 0 0 0 0 -20 -25 0 0 0 0 0 -9 0 -2 -6 -8 -24 -63 -13 0 0 0
0 0 0 0 0 0 0 0 0 0 0 0 0 0 0 0 0 0 0 0 0 0 0 0 0 -29 -23 0 0 0 -1 -6 0 0 0 0 0 -1 -70 0 0 -8 0
0 0 0 0 0 0 0 0 0 0 0 0 0 0 0 0 0 0 0 0 0 0 0 0 0 0 0 0 0 -74 -54 -3 -18 -31 0 0 0 0 -2 -6 -4 -1 0
0 0 0 0 0 0 0 0 0 0 0 0 0 0 0 0 0 0 0 0 0 0 0 0 0 0 0 0 0 0 -24 -90 -45 -4 -33 -16 0 0 0 0 -1 0 -30
0 0 0 0 0 0 0 0 0 0 0 0 0 0 0 0 0 0 0 0 0 0 0 0 0 0 0 0 0 0 0 0 -54 -5 -4 -16 -7 0 0 -1 -1 0 -2
0 0 0 0 0 0 0 0 0 0 0 0 0 0 0 0 0 0 0 0 0 0 0 0 0 0 0 0 0 0 0 0 0 0 -4 -6 -14 -54 -40 0 0 0 0
0 0 0 0 0 0 0 0 0 0 0 0 0 0 0 0 0 0 0 0 0 0 0 0 0 0 0 0 0 0 0 0 0 -5 -54 -45 -20 -52 -114 -119 0 0 0
0 0 0 0 0 0 0 0 0 0 0 0 0 0 0 0 0 0 0 0 0 0 0 0 0 0 0 0 0 0 -79 -70 -56 0 -1 0 -49 -76 -87 -150 -14 0 -1
0 0 0 0 0 0 0 0 0 0 0 0 0 0 0 0 0 0 0 0 0 0 0 0 0 0 0 -3 -48 -68 -78 -60 0 0 0 0 -60 -102 -99 -2 0 0 0
0 0 0 0 0 0 0 0 0 0 0 0 0 0 0 0 0 0 0 0 0 0 0 0 0 0 0 0 0 -96 -73 -59 -52 -2 0 0 -51 -113 -83 0 0 0 0
0 0 0 0 0 0 0 0 0 0 0 0 0 0 0 0 0 0 0 0 0 0 0 0 0 0 0 0 -83 -103 -23 0 0 -63 -15 -110 -8 0 -6 0 0 0 0
0 0 0 0 0 0 0 0 0 0 0 0 0 0 0 0 0 0 0 0 0 0 0 0 0 0 0 0 -27 -10 0 0 0 0 0 0 0 0 -5 0 0 0 0
0 0 0 0 0 0 0 0 0 0 0 0 0 0 0 0 0 0 0 0 0 0 0 0 0 0 0 0 0 0 0 0 0 0 0 0 0 0 0 0 0 0 0
0 0 0 0 0 0 0 0 0 0 0 0 0 0 0 0 0 0 0 0 0 0 0 0 0 0 0 0 0 0 0 0 0 0 0 0 0 0 0 0 0 0 0
0 0 0 0 0 0 0 0 0 0 0 0 0 0 0 0 0 0 0 0 0 0 0 0 -1 0 0 0 0 -2 0 0 0 0 0 0 0 0 0 0 0 0 0
0 0 0 0 0 0 0 0 0 0 0 0 0 0 0 -1 0 0 0 -2 0 0 0 0 0 0 0 0 0 0 0 0 0 0 0 0 0 0 0 0 0 0 0
0 0 0 0 0 0 0 0 0 0 0 0 0 0 0 0 0 -2 0 0 0 0 0 0 0 0 0 0 0 0 0 0 0 0 0 0 0 0 0 0 0 0 0
0 0 0 0 0 0 0 0 0 0 0 0 0 0 0 0 0 0 0 0 0 0 0 0 0 0 0 -1 0 0 0 0 0 0 0 0 0 0 0 0 0 0 0
0 0 0 0 0 0 0 0 0 0 0 0 0 0 0 0 0 0 0 0 0 0 0 0 0 0 0 -1 0 0 0 0 0 0 0 0 0 0 0 0 0 0 0
0 0 0 0 0 0 0 0 0 0 0 0 0 0 0 0 0 0 0 0 0 0 0 0 0 0 0 0 0 0 0 0 0 0 0 0 0 0 0 0 0 0 0
0 0 0 0 0 0 0 0 0 0 0 0 0 -1 0 0 0 0 0 0 0 0 0 0 0 -1 0 0 0 0 0 0 0 0 0 0 0 0 0 0 0 0 0
0 0 0 0 0 0 0 0 0 0 0 0 0 0 0 0 0 0 0 0 0 0 0 0 0 0 0 0 0 0 0 0 0 0 0 0 0 0 0 0 0 0 0
Wind_Speed
3 4 6 8 10 12 12 12 11 12 12 12 13 15 18 19 21 22 23 25 25 25 25 26 28 28 29 30 31 33 35 35 33 37 39 40 39 38 36 33 29 28 27
2 3 4 7 9 10 11 11 12 12 14 16 17 18 19 20 22 25 26 28 29 28 29 30 32 34 35 35 35 37 39 38 33 36 38 43 39 39 42 37 37 33 31
4 2 3 5 7 9 10 11 12 13 15 17 18 20 21 24 26 29 30 31 31 30 32 34 34 34 34 35 36 38 39 42 40 37 38 41 41 35 36 36 39 37 36
5 3 1 4 6 8 10 11 12 13 16 19 22 24 26 29 29 30 31 33 34 35 36 38 36 34 34 36 37 36 39 40 44 41 37 39 42 48 50 39 39 37 36
7 5 2 2 4 6 8 10 12 15 17 21 24 27 30 30 31 33 36 37 37 37 38 38 35 34 34 35 38 40 39 39 41 42 43 43 45 45 46 53 46 40 39
8 5 2 0 3 7 9 10 13 17 21 25 28 31 34 35 36 37 39 40 39 38 37 37 35 34 36 39 41 41 41 41 41 42 42 43 43 44 42 42 43 45 42
8 6 4 2 4 7 9 13 17 20 24 28 31 33 34 34 35 38 39 40 39 36 36 35 36 37 37 40 41 43 43 42 42 41 41 40 40 40 42 46 46 41 38
7 6 3 3 5 8 11 15 18 22 27 30 31 33 34 34 35 35 36 36 35 34 35 36 36 36 37 39 40 41 41 41 43 45 42 41 40 38 38 39 42 47 43
7 4 2 4 8 11 14 17 21 26 30 32 34 36 35 37 36 36 36 36 35 36 36 36 37 37 38 38 39 40 41 41 41 43 43 42 39 38 39 39 39 41 45
6 4 4 7 10 13 16 19 23 27 29 31 33 34 35 35 35 35 37 37 37 37 37 38 38 39 39 37 37 39 39 38 35 39 43 41 38 39 38 39 40 39 43
7 6 7 9 11 14 17 21 25 28 31 32 35 36 38 38 39 39 39 39 39 39 40 39 39 38 36 35 36 38 39 39 38 40 38 37 38 39 38 37 38 39 40
8 8 10 12 14 16 20 24 28 32 33 35 36 38 39 40 41 42 42 42 43 42 41 39 37 36 37 36 35 36 35 33 32 37 39 40 38 41 37 37 38 38 35
10 11 13 13 16 20 24 26 29 33 35 37 40 41 41 42 42 43 44 44 43 43 41 39 39 39 39 36 34 33 32 31 34 35 36 40 40 41 36 33 36 34 34
12 12 14 16 18 20 24 28 32 35 37 39 40 41 42 42 42 41 42 42 41 40 40 41 41 40 38 37 36 34 32 34 35 33 35 37 34 37 38 39 37 35 36
13 14 15 16 19 23 26 30 33 35 36 39 40 41 41 40 41 42 42 42 41 41 41 41 41 40 38 37 35 29 31 37 38 35 35 33 38 39 40 39 37 36 36
15 14 17 19 22 26 28 30 33 35 36 38 40 39 41 42 42 43 43 42 42 42 43 42 40 38 36 37 36 33 36 36 34 38 38 36 37 39 41 38 35 37 38
14 16 18 21 24 27 28 31 34 34 37 38 38 41 42 42 42 42 41 40 42 42 41 40 39 38 37 34 37 37 37 39 37 35 35 36 37 35 39 39 36 35 35
15 17 18 21 24 26 29 31 33 35 36 39 41 41 41 41 40 39 40 40 38 38 37 37 35 33 31 30 40 41 43 43 39 36 36 33 36 36 35 40 38 35 32
14 16 18 21 24 27 29 31 34 36 38 40 40 38 37 38 38 38 37 37 36 34 33 35 34 35 32 34 37 38 38 36 38 40 39 37 37 34 36 36 36 34 32
14 16 18 21 25 28 30 33 36 37 37 36 36 35 35 34 34 35 34 31 30 28 29 31 30 30 29 28 30 36 32 27 27 26 33 35 36 36 34 34 32 33 33
15 16 19 24 26 28 32 34 32 33 33 32 32 33 32 32 32 31 31 30 25 23 23 23 26 26 24 29 34 34 32 28 27 26 28 31 31 32 31 31 31 31 27
14 18 22 25 26 28 29 30 31 31 30 30 30 30 32 32 31 30 29 27 24 25 26 27 27 29 30 33 32 31 31 30 29 27 25 30 31 28 28 26 29 26 20
16 19 22 24 24 26 27 29 29 29 29 29 29 31 33 32 32 32 30 27 26 28 26 28 32 33 34 33 31 30 32 28 25 24 21 30 26 26 25 26 23 20 16
16 18 19 21 23 25 25 26 26 27 28 28 30 32 33 33 33 31 29 27 28 29 30 29 37 37 36 35 33 31 32 29 22 19 24 21 21 21 21 20 19 16 15
15 17 18 20 22 22 23 24 24 26 27 29 31 33 32 34 34 32 31 30 26 27 30 30 30 33 35 33 30 28 22 17 14 14 18 19 21 19 19 19 17 14 12
14 17 18 18 18 19 21 22 23 25 27 31 32 33 35 35 35 36 34 30 26 24 24 27 28 27 27 29 27 21 10 5 1 6 12 24 21 20 20 19 15 14 11
Wind_Direction
340 349 0 14 14 14 17 19 17 10 16 11 4 357 350 348 347 346 344 340 336 334 331 326 321 318 313 310 307 306 303 300 299 297 292 289 285 281 280 277 274 273 273
273 312 359 4 7 11 13 14 16 11 2 357 354 351 349 347 344 341 339 336 332 330 327 324 320 317 314 311 309 307 304 301 300 297 298 295 290 282 278 278 274 274 275
216 263 324 360 359 1 7 4 4 2 359 358 353 348 345 342 339 335 334 333 333 329 326 322 319 317 316 314 311 308 305 302 301 297 294 294 292 295 288 276 276 277 274
205 206 290 331 342 351 360 6 5 1 355 351 346 340 335 331 332 332 332 329 328 324 321 320 317 315 314 312 311 310 307 305 301 300 293 289 290 290 288 288 283 280 274
202 199 245 323 2 10 12 7 359 351 349 346 342 336 331 330 330 329 327 327 326 324 322 321 317 315 314 311 309 307 305 303 299 297 296 294 291 289 286 287 285 282 278
202 200 222 110 17 2 360 357 347 338 337 335 334 331 327 327 327 326 325 324 323 324 325 325 324 322 318 315 311 308 305 303 301 299 298 294 290 288 289 289 288 284 285
212 210 210 268 327 341 346 342 334 329 332 332 330 329 330 329 328 327 327 326 326 327 327 326 323 320 318 314 311 307 305 306 304 302 300 299 296 293 289 286 290 291 290
211 211 244 304 329 334 335 335 334 330 330 329 329 330 332 331 330 330 330 330 329 329 328 326 325 324 322 318 314 309 306 303 306 304 300 299 296 296 295 293 291 287 285
198 216 272 320 326 329 330 332 329 327 327 328 328 328 330 330 330 331 330 328 327 326 326 326 324 323 323 321 318 314 310 309 302 300 301 297 299 296 294 293 292 288 287
217 235 283 312 324 329 333 333 329 326 328 330 332 333 332 332 331 329 328 327 325 325 324 322 322 322 322 322 320 318 317 315 311 304 296 296 296 297 296 292 290 289 285
237 260 294 314 324 329 329 327 324 326 327 330 330 329 328 326 326 326 325 325 323 321 320 319 319 320 321 321 319 318 317 315 309 297 296 297 296 297 297 297 293 290 289
255 274 293 307 317 322 322 322 323 324 329 330 330 328 327 327 326 325 325 324 322 321 319 319 319 319 318 317 316 316 317 317 315 304 299 294 302 298 303 298 294 293 297
271 285 299 309 314 318 320 322 324 325 328 328 327 326 327 327 326 325 325 324 323 322 322 321 319 317 316 314 313 311 311 312 312 309 305 298 298 299 303 302 297 299 300
274 290 301 310 317 320 321 322 324 326 328 329 329 329 329 329 329 330 330 331 331 331 329 326 325 322 318 316 313 310 308 308 307 307 306 306 302 301 300 297 296 300 300
276 289 301 310 316 319 321 323 325 327 329 329 330 330 331 331 331 330 330 330 330 329 328 328 327 328 326 321 317 316 313 310 308 309 308 310 299 299 294 294 298 299 301
281 292 303 310 315 318 321 325 327 328 330 330 330 331 330 329 329 328 329 329 328 326 325 324 323 323 322 323 319 316 312 307 308 310 310 309 305 298 293 298 301 297 299
282 295 304 310 316 321 325 326 327 329 331 332 333 331 331 330 331 331 331 330 329 329 328 326 324 322 321 319 306 311 312 307 310 314 314 312 307 304 294 294 301 301 303
288 299 308 314 320 325 326 327 330 332 332 331 331 331 332 332 334 336 335 334 335 335 334 334 332 331 332 329 312 309 304 302 304 309 310 313 310 303 300 290 297 301 305
295 305 314 318 322 325 328 330 331 331 331 331 333 335 336 335 338 339 339 341 341 343 342 338 337 334 334 330 322 318 315 313 307 303 300 303 305 308 297 294 296 299 304
301 308 316 321 324 328 330 330 329 330 332 335 337 339 341 341 342 343 345 348 351 352 350 346 344 342 342 341 337 328 328 324 319 314 306 300 299 301 297 292 294 299 298
304 313 319 322 326 330 329 329 331 333 334 337 339 341 345 345 346 347 350 352 356 356 355 352 348 345 344 340 334 330 328 325 322 318 315 304 298 297 296 291 292 295 297
307 315 319 323 329 331 333 332 332 333 336 337 340 343 344 344 347 348 351 353 355 352 351 349 348 347 345 341 338 335 330 325 321 317 318 305 296 300 292 296 288 291 306
313 320 324 327 332 335 335 334 335 338 338 340 340 339 338 341 344 345 349 351 352 350 351 349 346 344 345 344 342 339 336 332 327 326 324 294 298 290 290 286 288 291 308
316 324 329 331 333 336 338 340 342 346 346 346 343 337 338 340 341 345 347 349 351 348 346 347 341 342 344 345 345 343 339 334 333 337 312 311 296 293 294 286 284 295 286
324 330 332 332 333 338 342 346 350 351 351 348 344 342 345 342 341 344 345 345 347 346 343 344 345 344 344 346 346 344 344 343 343 344 318 307 290 296 286 274 273 286 272
328 329 330 332 336 340 345 349 352 352 349 344 343 344 344 344 343 342 344 347 347 345 342 340 342 345 344 346 346 343 324 332 336 7 332 278 284 285 267 263 278 262 258